Home > Weather > Florianópolis > Past weeks

Flag for Brazil Weather for the Past 2 Weeks in Florianópolis, Santa Catarina, Brazil

Now
63 °F

Partly sunny.


Feels Like: 63 °F
Forecast: 61 / 65 °F
Wind: No wind

Location: Florianopolis Aeroporto

Current Time: May 6, 2016 at 7:24:12 AM

Latest Report: May 6, 2016 at 7:00 AM


Visibility: N/A

Pressure: 30.09 "Hg

Humidity: 94%

Dew Point: 61 °F

Location of FlorianópolisLocation

Historic Weather in Florianópolis — Graph

°F

Florianópolis Temperature Yesterday

Maximum temperature yesterday: 70 °F (at 12:00 PM)
Minimum temperature yesterday: 57 °F (at 6:00 AM)
Average temperature yesterday: 65 °F

High & Low Weather Summary for the Past Weeks

 TemperatureHumidityPressure
High90 °F (Apr 24, 1:00 PM)100% (May 5, 4:00 AM)30.21 "Hg (May 5, 4:00 AM)
Low50 °F (Apr 28, 3:00 AM)25% (Apr 22, 10:00 AM)29.56 "Hg (Apr 25, 2:00 PM)
Average67 °F74%29.99 "Hg
* Reported Apr 21 6:00 AM — May 6 6:00 AM, Florianópolis, Weather by CustomWeather, © 2016

Note: Actual official high and low records may vary slightly from our data, if they occured in-between our weather recording intervals... More about our weather records

Advertising

Florianópolis Weather History for the Previous 24 Hours

Scroll right to see more
 ConditionsComfort  
Time TempWeatherWind HumidityBarometerVisibility
6:00 AM
Fri, May 6
63 °FSunny.No wind94%30.07 "Hg10 mi
5:00 AM63 °FPartly cloudy.No wind94%30.07 "HgN/A
4:00 AM63 °FPartly cloudy.No wind94%30.09 "HgN/A
3:00 AM64 °FPartly cloudy.No wind83%30.09 "HgN/A
2:00 AM64 °FPartly cloudy.5 mph83%30.12 "HgN/A
1:00 AM64 °FPartly cloudy.7 mph83%30.12 "HgN/A
12:00 AM64 °FPartly cloudy.7 mph83%30.15 "HgN/A
11:00 PM
Thu, May 5
64 °FPartly cloudy.7 mph83%30.15 "HgN/A
10:00 PM66 °FPartly cloudy.5 mph83%30.15 "HgN/A
9:00 PM66 °FPartly cloudy.8 mph83%30.15 "HgN/A
8:00 PM66 °FPartly cloudy.8 mph83%30.15 "HgN/A
7:00 PM66 °FPartly cloudy.7 mph83%30.12 "HgN/A
6:00 PM66 °FPartly cloudy.7 mph83%30.12 "HgN/A
5:00 PM66 °FPartly cloudy.7 mph83%30.12 "Hg6 mi
4:00 PM68 °FBroken clouds.8 mph78%30.12 "HgN/A
3:00 PM68 °FBroken clouds.12 mph78%30.09 "HgN/A
2:00 PM68 °FScattered clouds.9 mph78%30.09 "HgN/A
1:00 PM70 °FScattered clouds.8 mph73%30.12 "HgN/A
12:00 PM70 °FScattered clouds.6 mph78%30.15 "HgN/A
11:00 AM68 °FPartly sunny.6 mph83%30.15 "HgN/A
10:00 AM68 °FPartly sunny.2 mph83%30.15 "HgN/A
9:00 AM64 °FPartly sunny.2 mph100%30.15 "HgN/A
8:00 AM63 °FPassing clouds.1 mph100%30.12 "Hg5 mi
7:00 AM57 °FLight fog.No wind100%30.09 "Hg5 mi
Weather by CustomWeather, © 2016

See weather overviewHow to use our weather pages